Weather in Shamanka

Russia / Irkutsk Oblast     52°04′19″N   103°49′27″E
temp.,
°C
wind,
m/s
gust,
m/s
humid.,
%
clouds,
%
prec.,
mm/h
press.,
hPa
HPBL,
m
7 march, sun
sun723:00−8s338781 0.0 102558
02:00−9ssw338479 0.0 102455
05:00−10ssw338023 0.0 102256
08:00−10ssw338012 0.0 102254
11:00−3s24730 0.0 1019218
14:00+1s35770 0.0 1017344
17:000s358695 0.0 1015192
20:00−5ssw228954 0.0 101927
8 march, mon
mon823:00−5sw2285100 0.0 102023
02:00−5w1282100 0.0 102121
05:00−8sw118333 0.0 102221
08:00−9nw118620 0.0 102521
11:00−5nnw369086 0.1 1025589
14:00−4n238393 0.3 1025618
17:00−5ene2288100 0.1 1024379
20:00−7ese2397100 0.2 102775
9 march, tue
tue923:00−10sse229581 0.0 102632
02:00−9s479577 0.0 1024182
05:00−9s598884 0.0 1021201
08:00−9s478490 0.0 1022149
11:00−2ssw23752 0.0 1020244
14:00+2nnw147237 0.0 1020596
17:00+1n1178100 0.0 1020271
20:00−5ssw1188100 0.0 102421
10 march, wed
wed1023:00−6sw118444 0.0 102621
02:00−7ssw228422 0.0 102721
05:00−8sw11870 0.0 102721
08:00−8s22880 0.0 102723
11:00−2s35730 0.0 1023271
14:00+1s36770 0.0 1020427
17:00+1s35830 0.0 1018295
20:00−5ssw33880 0.0 102045
11 march, thu
thu1123:00−6ssw22850 0.0 102325
02:00−6ssw22840 0.0 102323
05:00−7ssw23810 0.0 102330
08:00−7s33780 0.0 102470
11:000s47680 0.0 1020260
14:00+2s48750 0.0 1017381
17:00+1s5128029 0.0 1015352
20:000s5127415 0.0 1016288